Location: Staunton
(38.1490°N, 79.0720°W)
Time: 22:43:49
(UTC-05:00)

ISS - Pass Details

Date: 16 November 2017
Orbit: 402 x 407 km, 51.6° (Epoch: 13 December)

Event Time Altitude Azimuth Distance (km) Brightness Sun altitude
Exits shadow 05:44:09 26° 321° (NW) 838 -2.7 -14.7°
Maximum altitude 05:45:49 67° 38° (NE) 438 -3.6 -14.4°
Drops below altitude 10° 05:49:03 10° 122° (ESE) 1,447 0.2 -13.8°
Sets 05:51:01 0° 125° (SE) 2,256 1.4 -13.4°
